Back to catalog

STARLINK-36381

AliveCommunicationsVLEO
NORAD 67952·PAYLOAD·🇺🇸 United States

Launched Feb 24, 2026 from Vandenberg Space Force Base

Loading…

Next Passes (next 24 hours)

TLE

FreshSource: CelesTrak SupGP

Epoch: Sep 14, 2026, 23:17 UTC

1 67952C 26037W   26257.97062500 -.00019718  00000+0 -71421-3 0  2570
2 67952  43.0022 202.0022 0001003 251.0809 193.6147 15.27586800    13

Track STARLINK-36381 in real time with AllMySat

Download on the App Store